TimeCST,TemperatureF,Dew PointF,Humidity,Sea Level PressureIn,VisibilityMPH,Wind Direction,Wind SpeedMPH,Gust SpeedMPH,PrecipitationIn,Events,Conditions,WindDirDegrees,DateUTC
12:15 AM,30.2,23.0,75,30.01,10.0,ESE,4.6,-,N/A,,Overcast,120,2012-12-28 06:15:00
1:15 AM,30.2,23.0,75,30.01,10.0,ESE,3.5,-,N/A,,Overcast,120,2012-12-28 07:15:00
1:35 AM,30.2,24.8,80,30.00,10.0,ESE,4.6,-,N/A,,Overcast,110,2012-12-28 07:35:00
1:55 AM,30.2,24.8,80,30.00,10.0,ESE,3.5,-,N/A,,Overcast,110,2012-12-28 07:55:00
2:15 AM,30.2,23.0,75,29.99,10.0,ENE,4.6,-,N/A,,Overcast,60,2012-12-28 08:15:00
2:55 AM,30.2,23.0,75,30.00,10.0,East,4.6,-,N/A,,Overcast,80,2012-12-28 08:55:00
3:55 AM,30.2,23.0,75,30.00,10.0,Calm,Calm,-,N/A,,Overcast,0,2012-12-28 09:55:00
4:35 AM,30.2,23.0,75,30.00,10.0,Calm,Calm,-,N/A,,Overcast,0,2012-12-28 10:35:00
4:55 AM,30.2,23.0,75,30.00,10.0,ESE,3.5,-,N/A,,Overcast,120,2012-12-28 10:55:00
5:35 AM,30.2,23.0,75,29.98,9.0,East,4.6,-,N/A,,Overcast,100,2012-12-28 11:35:00
5:55 AM,30.2,24.8,80,29.98,8.0,East,3.5,-,N/A,,Overcast,100,2012-12-28 11:55:00
6:15 AM,30.2,24.8,80,29.98,8.0,Calm,Calm,-,N/A,,Overcast,0,2012-12-28 12:15:00
6:35 AM,30.2,24.8,80,29.97,7.0,East,3.5,-,N/A,,Mostly Cloudy,80,2012-12-28 12:35:00
7:55 AM,32.0,24.8,75,29.95,8.0,Calm,Calm,-,N/A,,Overcast,0,2012-12-28 13:55:00
8:15 AM,32.0,24.8,75,29.97,9.0,East,3.5,-,N/A,,Mostly Cloudy,80,2012-12-28 14:15:00
8:35 AM,32.0,24.8,75,29.98,9.0,Calm,Calm,-,N/A,,Overcast,0,2012-12-28 14:35:00
8:55 AM,32.0,24.8,75,29.98,9.0,Calm,Calm,-,N/A,,Overcast,0,2012-12-28 14:55:00
9:15 AM,32.0,24.8,75,29.98,9.0,Calm,Calm,-,N/A,,Overcast,0,2012-12-28 15:15:00
9:35 AM,33.8,24.8,70,29.98,8.0,Calm,Calm,-,N/A,,Overcast,0,2012-12-28 15:35:00
9:55 AM,33.8,26.6,75,29.96,8.0,Calm,Calm,-,N/A,,Overcast,0,2012-12-28 15:55:00
10:55 AM,33.8,26.6,75,29.96,8.0,Calm,Calm,-,N/A,,Overcast,0,2012-12-28 16:55:00
11:15 AM,33.8,26.6,75,29.96,8.0,Calm,Calm,-,N/A,,Overcast,0,2012-12-28 17:15:00
11:35 AM,33.8,26.6,75,29.94,7.0,Calm,Calm,-,N/A,,Overcast,0,2012-12-28 17:35:00
11:55 AM,33.8,26.6,75,29.91,5.0,Calm,Calm,-,N/A,,Overcast,0,2012-12-28 17:55:00
12:55 PM,35.6,28.4,75,29.89,7.0,Calm,Calm,-,N/A,,Overcast,0,2012-12-28 18:55:00
1:15 PM,35.6,28.4,75,29.88,7.0,Calm,Calm,-,0.01,,Overcast,0,2012-12-28 19:15:00
1:35 PM,35.6,28.4,75,29.87,8.0,Calm,Calm,-,0.01,,Overcast,0,2012-12-28 19:35:00
2:15 PM,35.6,28.4,75,29.87,6.0,NW,5.8,-,N/A,,Overcast,320,2012-12-28 20:15:00
2:35 PM,35.6,28.4,75,29.87,4.0,NW,6.9,-,N/A,,Overcast,320,2012-12-28 20:35:00
2:55 PM,33.8,28.4,81,29.87,2.5,NW,4.6,-,N/A,,Overcast,320,2012-12-28 20:55:00
3:15 PM,33.8,28.4,81,29.87,3.0,NW,3.5,-,N/A,,Overcast,310,2012-12-28 21:15:00
3:35 PM,33.8,28.4,81,29.88,4.0,NW,4.6,-,N/A,,Overcast,320,2012-12-28 21:35:00
3:55 PM,35.6,28.4,75,29.88,5.0,NW,5.8,-,0.01,,Overcast,310,2012-12-28 21:55:00
4:35 PM,35.6,30.2,81,29.89,3.0,NW,6.9,-,N/A,,Overcast,310,2012-12-28 22:35:00
5:15 PM,35.6,28.4,75,29.89,5.0,NW,5.8,-,N/A,,Overcast,310,2012-12-28 23:15:00
5:35 PM,35.6,28.4,75,29.90,7.0,NW,4.6,-,N/A,,Overcast,310,2012-12-28 23:35:00
6:35 PM,35.6,28.4,75,29.91,6.0,WNW,9.2,-,N/A,,Overcast,300,2012-12-29 00:35:00
6:55 PM,33.8,28.4,81,29.92,5.0,WNW,8.1,-,N/A,,Overcast,300,2012-12-29 00:55:00
7:15 PM,33.8,26.6,75,29.92,6.0,NW,6.9,-,N/A,,Overcast,310,2012-12-29 01:15:00
7:55 PM,33.8,26.6,75,29.94,8.0,NW,6.9,-,N/A,,Mostly Cloudy,310,2012-12-29 01:55:00
8:35 PM,33.8,26.6,75,29.95,7.0,NW,10.4,-,N/A,,Overcast,310,2012-12-29 02:35:00
8:55 PM,33.8,26.6,75,29.95,8.0,NW,6.9,-,N/A,,Overcast,310,2012-12-29 02:55:00
9:15 PM,33.8,26.6,75,29.96,8.0,WNW,10.4,-,N/A,,Overcast,300,2012-12-29 03:15:00
9:35 PM,33.8,26.6,75,29.96,9.0,NW,5.8,-,N/A,,Overcast,310,2012-12-29 03:35:00
9:55 PM,33.8,24.8,70,29.97,9.0,WNW,9.2,-,N/A,,Overcast,300,2012-12-29 03:55:00
10:15 PM,33.8,24.8,70,29.98,10.0,NW,10.4,-,N/A,,Overcast,310,2012-12-29 04:15:00
10:35 PM,33.8,24.8,70,29.98,10.0,NW,10.4,16.1,N/A,,Overcast,310,2012-12-29 04:35:00
11:35 PM,32.0,21.2,64,30.00,10.0,NW,12.7,23.0,N/A,,Overcast,310,2012-12-29 05:35:00
11:55 PM,32.0,21.2,64,30.01,10.0,WNW,13.8,21.9,N/A,,Overcast,300,2012-12-29 05:55:00